Weather WX

World > North America > United States > Ohio

Springdale, Ohio Regional Weather

Lat: 39.29N, Lon: 84.48W
Wx Zone: OHZ077
Warning FLW WEATHER ALERT - FLASH FLOOD WATCH (More Info. Click Here) Warning
Feedback

Springdale, OH Regional Weather

Expires:201906201400;;785362
ASUS41 KCLE 201310
RWRCLE
OHIO REGIONAL WEATHER ROUNDUP
NATIONAL WEATHER SERVICE WILMINGTON, OH
900 AM EDT THU JUN 20 2019

NOTE: "FAIR" INDICATES FEW OR NO CLOUDS BELOW 12,000 FEET WITH NO
SIGNIFICANT WEATHER AND/OR OBSTRUCTIONS TO VISIBILITY.


OHZ042-051>053-060>062-070>072-077>081-201400-
  SOUTHWEST OHIO
  
CITY           SKY/WX    TMP DP  RH WIND       PRES   REMARKS
CINC-COVINGTON CLOUDY    68  65  90 SW8       29.63S FOG              
CINC-LUNKEN    CLOUDY    70  67  90 SW10      29.63S FOG              
HAMILTON       CLOUDY    70  67  90 VRB6      29.63R                  
DAYTON         CLOUDY    71  67  87 SW10      29.62R                  
WRIGHT-PAT AFB CLOUDY    71  67  89 SW10      29.60S                  
DAYTON GENERAL CLOUDY    71  67  87 S9        29.62R                  
WILMINGTON     CLOUDY    68  67  96 SW13      29.63S                  
$$


SKY/WX - Weather  TMP - Temperature  DP - Dew Point  RH - Relative Humidity
WIND - Wind Direction/Speed PRES - Barometric Pressure VSB - Visibility
WCI - Wind Chill Index E13G22 Wind - East Wind 13 mph/Gusts of 22 mph